[[{"header":{"parameterUnit":"m.s-1","parameterCategory":1,"la1":30.2991,"la2":30.254,"lo1":-89.0895,"lo2":-89.0444,"dy":0.0017,"dx":0.0017,"nx":28,"ny":28,"refTime":"2024-10-08T09:00:00:Z","depth":0,"parameterNumber":2,"parameterNumberName":"U-component_of_WINDS"},"data":[0,0,0,0,0,0,0,0,0,0,0,0,0,0,0,0,0,0,0,0,0,0,0,0,0,0,0,0,0,0,0,0,0,0,0,0,0,0,0,0,0,0,0,0,0,0,0,0,0,0,0,0,0,0,0,0,0,0,-2.0786,-2.0787,0,-2.0893,-2.0894,-2.0896,-2.0845,-2.0842,-2.084,-2.0837,-2.095,-2.0956,-2.0961,0,0,0,0,0,0,0,0,0,0,0,0,0,-2.0538,-2.0543,-2.0785,-2.0787,-2.0788,-2.0893,-2.0894,-2.0896,-2.0846,-2.0842,-2.0839,-2.0836,-2.0948,-2.0955,-2.0962,0,0,0,0,0,0,0,0,0,0,0,0,0,-2.0646,-2.0545,-2.0785,-2.0776,-2.0776,-2.0893,-2.0894,-2.0896,-2.0846,-2.0842,-2.0838,-2.0834,-2.0946,-2.0954,-2.0962,-2.1096,0,0,-2.0988,-2.0991,0,0,0,0,0,0,0,0,-2.064,-2.0655,-2.0776,-2.0776,-2.0777,-2.0851,-2.0849,-2.0963,-2.0847,-2.082,-2.0837,-2.0832,-2.0921,-2.0931,-2.096,-2.1101,-2.1106,-2.0989,-2.0994,-2.0997,-2.1,0,0,0,0,0,0,0,-2.0632,-2.065,-2.0828,-2.0778,-2.0778,-2.0767,-2.0777,-2.087,-2.0892,-2.0822,-2.0818,-2.0832,-2.092,-2.0952,-2.0962,-2.1108,-2.0988,-2.0996,-2.1001,-2.1004,-2.1364,-2.1368,0,0,0,0,0,0,-2.0625,-2.0644,-2.0825,-2.0831,-2.0697,-2.0774,-2.0786,-2.0832,-2.0891,-2.0896,-2.0835,-2.0829,-2.094,-2.0953,-2.0966,-2.1127,-2.0997,-2.1005,-2.101,-2.1359,-2.1365,-2.137,0,0,0,0,0,0,-2.062,-2.0641,-2.082,-2.0737,-2.0759,-2.0783,-2.0834,-2.0836,-2.0868,-2.0901,-2.0905,-2.0864,-2.0937,-2.0955,-2.1064,-2.1131,-2.1009,-2.1016,-2.1354,-2.1361,-2.1367,-2.145,0,0,0,0,0,0,-2.0613,-2.064,-2.0691,-2.0738,-2.0763,-2.0916,-2.0838,-2.0841,-2.0882,-2.0875,-2.0929,-2.0934,-2.0935,-2.1052,-2.1072,-2.114,-2.1023,-2.1348,-2.1357,-2.1365,-2.1442,-2.1459,-2.1474,0,0,0,0,0,-2.0604,-2.071,-2.0693,-2.0715,-2.0827,-2.092,-2.0934,-2.0934,-2.0888,-2.0939,-2.096,-2.0932,-2.1119,-2.1063,-2.1086,-2.1157,-2.1344,-2.1355,-2.1365,-2.1434,-2.1455,-2.1473,0,0,0,0,0,0,-2.067,-2.0716,-2.0698,-2.0822,-2.0867,-2.0911,-2.0976,-2.0956,-2.1016,-2.1007,-2.1004,-2.1016,-2.113,-2.1154,-2.1091,-2.1289,-2.1225,-2.124,-2.127,-2.129,-2.1306,-2.1299,-2.103,0,0,0,0,0,-2.0699,-2.077,-2.0806,-2.0912,-2.0936,-2.0952,-2.0992,-2.0988,-2.1035,-2.1054,-2.1083,-2.1131,-2.12,-2.1246,-2.1312,-2.1444,-2.1455,-2.1504,-2.152,-2.1533,-2.1547,-2.1619,-2.1642,-2.1404,-2.1403,-2.1403,0,0,-2.076,-2.0793,-2.0839,-2.0926,-2.0961,-2.1035,-2.0969,-2.105,-2.1106,-2.1067,-2.1172,-2.1195,-2.1247,-2.1369,-2.1424,-2.1393,-2.1615,-2.1546,-2.1556,-2.1563,-2.1632,-2.1655,-2.1675,-2.141,-2.1409,-2.1408,0,0,-2.0909,-2.0941,-2.1033,-2.1069,-2.1121,-2.1131,-2.1153,-2.12,-2.1214,-2.1319,-2.1292,-2.1357,-2.1477,-2.1516,-2.1552,-2.1714,-2.1691,-2.1736,-2.1821,-2.1892,-2.1911,-2.1927,-2.1987,-2.2008,-2.1749,-2.1749,-2.1749,0,-2.0978,-2.1089,-2.1083,-2.1167,-2.1207,-2.1174,-2.1268,-2.1303,-2.1375,-2.1403,-2.1367,-2.1516,-2.1549,-2.168,-2.172,-2.1749,-2.1775,-2.1731,-2.1908,-2.1925,-2.194,-2.1997,-2.202,-2.1755,-2.1754,-2.1753,-2.1753,0,-2.1172,-2.1249,-2.1317,-2.1387,-2.1434,-2.1522,-2.1531,-2.158,-2.1571,-2.1585,-2.1693,-2.1731,-2.1804,-2.1834,-2.1826,-2.1964,-2.1943,-2.1907,-2.1843,-2.1968,-2.2022,-2.2043,-2.1762,-2.176,-2.1759,-2.1757,0,0,-2.1368,-2.1432,-2.1458,-2.1489,-2.1544,-2.1604,-2.1691,-2.1762,-2.1804,-2.1854,-2.1928,-2.2029,-2.1997,-2.2037,-2.2033,-2.2095,-2.2223,-2.2051,-2.2053,-2.2084,-2.2379,-2.2407,-2.2433,-2.2207,-2.2211,-2.2214,-2.2375,0,-2.1522,-2.1674,-2.1672,-2.1813,-2.1885,-2.1854,-2.1929,-2.1972,-2.1987,-2.2051,-2.2067,-2.214,-2.209,-2.2114,-2.2174,-2.2195,-2.2283,-2.2183,-2.2277,-2.2281,-2.2268,-2.246,-2.2491,-2.2641,-2.2396,-2.2399,-2.2402,0,-2.1723,-2.178,-2.1928,-2.1973,-2.2003,-2.2071,-2.2136,-2.2196,-2.2244,-2.2251,-2.2295,-2.2281,-2.2371,-2.2301,-2.2425,-2.2357,-2.2395,-2.2411,-2.2417,-2.2428,-2.2351,-2.2478,-2.2688,-2.2712,-2.2435,-2.2432,-2.243,0,-2.1854,-2.1966,-2.207,-2.2097,-2.2152,-2.2201,-2.2226,-2.2269,-2.2312,-2.2368,-2.2396,-2.2463,-2.25,-2.2552,-2.2556,-2.2505,-2.2682,-2.2612,-2.2691,-2.2691,-2.2732,-2.273,-2.2953,-2.2753,-2.2752,-2.2752,-2.2751,0,-2.2028,-2.212,-2.2129,-2.2193,-2.2296,-2.2292,-2.2394,-2.2415,-2.2454,-2.2522,-2.2498,-2.2563,-2.2564,-2.263,-2.2634,-2.2737,-2.2753,-2.2762,-2.2762,-2.2765,-2.2765,-2.2792,-2.2783,-2.2758,-2.2756,-2.2755,-2.2754,0,-2.2192,-2.2201,-2.2313,-2.2354,-2.2367,-2.2441,-2.2477,-2.2539,-2.2551,-2.2637,-2.2657,-2.2677,-2.2754,-2.2763,-2.2852,-2.2855,-2.2979,-2.2967,-2.2963,-2.2962,-2.3041,-2.3034,-2.3292,-2.3326,-2.3101,-2.3103,-2.3105,0,-2.2304,-2.2374,-2.2423,-2.2467,-2.2494,-2.2565,-2.2608,-2.2606,-2.2653,-2.2712,-2.2766,-2.284,-2.2899,-2.3023,-2.3046,-2.3114,-2.3106,-2.3191,-2.3116,-2.3117,-2.3109,-2.3106,-2.3114,-2.3207,-2.3209,-2.3211,-2.3213,0,-2.2502,-2.2503,-2.2566,-2.2631,-2.2683,-2.2734,-2.2782,-2.2819,-2.2823,-2.2876,-2.2954,-2.3,-2.3091,-2.3165,-2.3232,-2.3258,-2.3238,-2.3235,-2.3258,-2.3263,-2.3258,-2.3264,-2.3005,-2.323,-2.3229,-2.3227,-2.3226,-2.3226,-2.2645,-2.2706,-2.275,-2.2821,-2.2857,-2.2902,-2.2962,-2.2981,-2.3046,-2.3119,-2.3114,-2.32,-2.3245,-2.3333,-2.3364,-2.3432,-2.3404,-2.3436,-2.3444,-2.3453,-2.3462,-2.3245,-2.3444,-2.3444,-2.3443,-2.3443,-2.3442,0,-2.2843,-2.287,-2.2935,-2.3002,-2.3059,-2.3031,-2.3083,-2.3132,-2.3208,-2.3252,-2.331,-2.34,-2.3471,-2.3499,-2.3569,-2.3618,-2.361,-2.3637,-2.3635,-2.3641,-2.3482,-2.3457,-2.3642,-2.3642,-2.3642,-2.3642,-2.3642,-2.3642,-2.2953,-2.3056,-2.3062,-2.3183,-2.3208,-2.3292,-2.3324,-2.3366,-2.3401,-2.3502,-2.3561,-2.3578,-2.3616,-2.3688,-2.3753,-2.3759,-2.3787,-2.3819,-2.3821,-2.3672,-2.3652,-2.3633,-2.361,-2.3824,-2.3825,-2.3975,-2.3977,-2.3978]},{"header":{"parameterUnit":"m.s-1","parameterCategory":1,"la1":30.2991,"la2":30.254,"lo1":-89.0895,"lo2":-89.0444,"dy":0.0017,"dx":0.0017,"nx":28,"ny":28,"refTime":"2024-10-08T09:00:00:Z","depth":0,"parameterNumber":3,"parameterNumberName":"V-component_of_WINDS"},"data":[0,0,0,0,0,0,0,0,0,0,0,0,0,0,0,0,0,0,0,0,0,0,0,0,0,0,0,0,0,0,0,0,0,0,0,0,0,0,0,0,0,0,0,0,0,0,0,0,0,0,0,0,0,0,0,0,0,0,-5.144,-5.144,0,-5.146,-5.1461,-5.1461,-5.137,-5.1368,-5.1365,-5.1363,-5.1381,-5.1384,-5.1387,0,0,0,0,0,0,0,0,0,0,0,0,0,-5.1318,-5.1321,-5.144,-5.144,-5.144,-5.146,-5.1461,-5.1461,-5.1371,-5.1368,-5.1364,-5.1361,-5.138,-5.1384,-5.1388,0,0,0,0,0,0,0,0,0,0,0,0,0,-5.1358,-5.1322,-5.144,-5.1398,-5.1394,-5.146,-5.1461,-5.1461,-5.1371,-5.1368,-5.1364,-5.136,-5.1379,-5.1384,-5.1388,-5.1495,0,0,-5.1402,-5.1404,0,0,0,0,0,0,0,0,-5.1356,-5.1363,-5.1404,-5.1401,-5.1397,-5.1409,-5.1425,-5.1472,-5.1372,-5.138,-5.1362,-5.1358,-5.1394,-5.1397,-5.1409,-5.1496,-5.1497,-5.1402,-5.1405,-5.1407,-5.1408,0,0,0,0,0,0,0,-5.1353,-5.1361,-5.1448,-5.1404,-5.14,-5.1377,-5.1378,-5.1433,-5.1409,-5.1379,-5.1373,-5.1376,-5.1391,-5.1405,-5.1409,-5.1497,-5.1402,-5.1406,-5.1409,-5.141,-5.1671,-5.1675,0,0,0,0,0,0,-5.1356,-5.136,-5.1447,-5.1448,-5.1366,-5.1382,-5.1383,-5.1409,-5.1408,-5.1404,-5.138,-5.1372,-5.1399,-5.1404,-5.1409,-5.1533,-5.1407,-5.1411,-5.1413,-5.1666,-5.1671,-5.1676,0,0,0,0,0,0,-5.1354,-5.1365,-5.1446,-5.1402,-5.1411,-5.1388,-5.1418,-5.1411,-5.1425,-5.1408,-5.1403,-5.1399,-5.1396,-5.1403,-5.1474,-5.1533,-5.1413,-5.1417,-5.1661,-5.1668,-5.1674,-5.1783,0,0,0,0,0,0,-5.1351,-5.1365,-5.1406,-5.1404,-5.1413,-5.1512,-5.1421,-5.1415,-5.1434,-5.1424,-5.1425,-5.1421,-5.1394,-5.1468,-5.1479,-5.1537,-5.142,-5.1656,-5.1664,-5.1672,-5.1774,-5.1792,-5.1808,0,0,0,0,0,-5.1347,-5.1436,-5.1409,-5.142,-5.1465,-5.1516,-5.1521,-5.1488,-5.1439,-5.1479,-5.1468,-5.1421,-5.1525,-5.1476,-5.1487,-5.1547,-5.1652,-5.1662,-5.1671,-5.1766,-5.1789,-5.1808,0,0,0,0,0,0,-5.1445,-5.1435,-5.1405,-5.1496,-5.1507,-5.15,-5.1551,-5.1513,-5.1538,-5.1528,-5.1485,-5.1486,-5.1565,-5.1563,-5.1509,-5.165,-5.158,-5.1592,-5.1648,-5.1669,-5.1686,-5.1684,-5.1424,0,0,0,0,0,-5.1477,-5.1521,-5.1509,-5.159,-5.1598,-5.1574,-5.1594,-5.1568,-5.1578,-5.1582,-5.1576,-5.1587,-5.1622,-5.1645,-5.1676,-5.1773,-5.1772,-5.182,-5.1837,-5.1851,-5.1862,-5.1912,-5.1933,-5.1707,-5.1707,-5.1707,0,0,-5.1544,-5.1544,-5.1574,-5.161,-5.1616,-5.166,-5.1578,-5.1629,-5.1661,-5.159,-5.1656,-5.1653,-5.1662,-5.1746,-5.1783,-5.1747,-5.1924,-5.1863,-5.1875,-5.1878,-5.1924,-5.1945,-5.1965,-5.1714,-5.1713,-5.1712,0,0,-5.1689,-5.1694,-5.1761,-5.1769,-5.1779,-5.1762,-5.1779,-5.1777,-5.1772,-5.1839,-5.1786,-5.1823,-5.1884,-5.1892,-5.1904,-5.2052,-5.2009,-5.2063,-5.2151,-5.22,-5.2218,-5.2234,-5.2285,-5.2304,-5.2074,-5.2074,-5.2074,0,-5.177,-5.1836,-5.18,-5.1855,-5.1871,-5.181,-5.1877,-5.1886,-5.1906,-5.1918,-5.1878,-5.1953,-5.1954,-5.2039,-5.2075,-5.2087,-5.2104,-5.2062,-5.2219,-5.2234,-5.2248,-5.2296,-5.2316,-5.208,-5.208,-5.2079,-5.2078,0,-5.1935,-5.1982,-5.2035,-5.2056,-5.2079,-5.214,-5.2112,-5.2139,-5.2111,-5.2098,-5.2165,-5.2166,-5.2195,-5.2213,-5.2186,-5.2294,-5.2272,-5.2226,-5.2154,-5.2276,-5.2321,-5.2339,-5.209,-5.2087,-5.2085,-5.2084,0,0,-5.2142,-5.2143,-5.2163,-5.2171,-5.2177,-5.2212,-5.2269,-5.2299,-5.2322,-5.2338,-5.2384,-5.2437,-5.2394,-5.2408,-5.2381,-5.2425,-5.254,-5.2373,-5.2372,-5.2403,-5.2658,-5.2691,-5.2714,-5.2512,-5.2515,-5.2518,-5.2656,0,-5.2283,-5.2382,-5.2351,-5.245,-5.2491,-5.2433,-5.2482,-5.2491,-5.2481,-5.2513,-5.2501,-5.2539,-5.2481,-5.2488,-5.2529,-5.2517,-5.259,-5.2507,-5.2553,-5.2555,-5.2552,-5.2737,-5.2773,-5.2904,-5.2674,-5.2677,-5.2679,0,-5.2461,-5.2484,-5.2587,-5.2586,-5.2602,-5.2647,-5.2671,-5.2704,-5.2712,-5.2701,-5.2717,-5.268,-5.2735,-5.2664,-5.2738,-5.2682,-5.2699,-5.2696,-5.2701,-5.2703,-5.2624,-5.2744,-5.2945,-5.2965,-5.2706,-5.2704,-5.2702,0,-5.26,-5.2657,-5.2726,-5.2735,-5.2735,-5.2768,-5.2769,-5.2774,-5.2793,-5.2814,-5.2826,-5.2852,-5.2867,-5.2888,-5.2859,-5.281,-5.2938,-5.2864,-5.2929,-5.293,-5.2958,-5.2956,-5.3164,-5.2971,-5.297,-5.297,-5.297,0,-5.276,-5.2826,-5.2788,-5.2831,-5.2902,-5.2865,-5.2936,-5.293,-5.2935,-5.2974,-5.2925,-5.2963,-5.2923,-5.2957,-5.2935,-5.2999,-5.3006,-5.2998,-5.2991,-5.3002,-5.3003,-5.3012,-5.3002,-5.2975,-5.2974,-5.2973,-5.2972,0,-5.2928,-5.2906,-5.2977,-5.2971,-5.2971,-5.3023,-5.3018,-5.3056,-5.3042,-5.3092,-5.3102,-5.3079,-5.3117,-5.309,-5.3128,-5.3113,-5.3197,-5.3178,-5.3194,-5.3189,-5.3255,-5.3249,-5.3475,-5.3502,-5.3292,-5.3294,-5.3296,0,-5.3031,-5.308,-5.308,-5.3103,-5.3108,-5.3146,-5.3165,-5.313,-5.3152,-5.3165,-5.3202,-5.3235,-5.3259,-5.3321,-5.3308,-5.3336,-5.3316,-5.3394,-5.332,-5.3329,-5.3316,-5.3313,-5.3318,-5.3408,-5.3411,-5.3413,-5.3414,0,-5.3217,-5.3203,-5.3233,-5.326,-5.3285,-5.3304,-5.3319,-5.334,-5.3305,-5.3332,-5.337,-5.3389,-5.3427,-5.346,-5.3483,-5.3483,-5.3443,-5.3438,-5.3454,-5.3465,-5.3473,-5.3469,-5.3234,-5.3433,-5.3431,-5.3429,-5.3429,-5.3428,-5.3355,-5.3395,-5.3401,-5.3436,-5.3443,-5.3458,-5.3494,-5.3484,-5.3515,-5.3543,-5.3521,-5.3566,-5.3571,-5.3598,-5.3603,-5.3637,-5.3605,-5.3629,-5.3635,-5.3641,-5.365,-5.3468,-5.3641,-5.364,-5.364,-5.3639,-5.3639,0,-5.3537,-5.3537,-5.357,-5.3593,-5.362,-5.358,-5.3595,-5.362,-5.366,-5.3669,-5.3694,-5.3737,-5.3769,-5.3758,-5.3786,-5.3815,-5.3797,-5.3823,-5.382,-5.3821,-5.3677,-5.366,-5.3837,-5.3837,-5.3837,-5.3837,-5.3837,-5.3837,-5.3634,-5.37,-5.3687,-5.3756,-5.3755,-5.3799,-5.3811,-5.3824,-5.3831,-5.3881,-5.3907,-5.39,-5.3901,-5.3928,-5.3955,-5.3951,-5.3963,-5.3996,-5.3985,-5.3851,-5.3831,-5.3813,-5.3796,-5.3999,-5.3999,-5.4126,-5.4127,-5.4128]}]]